User: anonymous   Login
Location: Unspecified
(0.0000°N, 0.0000°E)
Time: 06:17:50
(UTC+00:00)
Language:

AO-85 - Orbit

View from above orbital plane
View from above orbital plane
View from above satellite
View from above satellite

Ground track
Ground track

The orbit data is extracted from the following two-line orbital elements,

1 40967U 15058D   17117.19730730  .00000776  00000-0  10881-3 0 04639
2 40967 064.7791 013.5407 0172377 096.8920 265.1837 14.75390162069592
Epoch (UTC): 27 April 2017 04:44:07
Eccentricity: 0.0172377
inclination: 64.7791°
perigee height: 523 km
apogee height: 765 km
right ascension of ascending node: 13.5407°
argument of perigee: 96.8920°
revolutions per day: 14.75390162
mean anomaly at epoch: 265.1837°
orbit number at epoch: 6959

The dashed part of the orbit path shows where the satellite is in the earth's shadow,  

DLR